Theta_e
325 323 322 321 321 318 316 317 320 320 318 318 319 319 320 320 317 318 316 315 313 313
327 325 324 323 323 321 320 321 320 320 319 319 319 322 324 323 321 315 314 314 313 311
327 328 326 324 322 321 322 322 321 321 320 320 325 325 322 317 311 311 309 311 308 307
326 328 326 324 323 323 322 323 323 323 323 324 316 312 310 307 305 305 305 307 307 306
324 325 326 325 324 323 322 323 323 324 322 313 308 304 302 301 302 301 302 307 307 306
323 321 323 324 325 325 324 323 323 320 312 307 304 302 301 300 299 299 302 306 308 307
326 324 321 322 324 323 323 323 321 314 309 306 303 301 300 300 300 300 303 305 308 308
330 328 325 322 323 322 323 320 316 310 308 303 303 301 301 301 301 301 301 303 306 307
327 328 327 325 324 323 318 317 313 309 305 302 305 304 306 305 302 302 300 299 302 304
324 325 326 324 325 320 315 314 311 307 305 302 303 303 303 306 303 302 300 299 301 301
321 317 322 321 319 317 312 311 309 309 309 305 305 304 301 303 303 302 300 300 300 298
320 315 318 316 315 312 311 310 310 310 309 309 308 305 302 301 301 301 300 300 299 299
317 317 316 315 311 310 310 311 311 311 310 309 309 305 303 301 301 299 299 298 297 301
313 311 309 309 309 309 308 309 308 309 309 308 308 308 303 300 301 301 298 296 296 296
Wind_Speed
8 5 5 6 5 4 4 4 4 6 6 7 6 6 5 3 4 5 4 6 5 3
7 7 6 7 5 4 4 4 6 6 7 5 5 6 5 3 4 2 3 4 4 3
7 7 6 5 5 6 5 4 5 6 5 4 4 1 3 4 1 2 2 1 1 2
5 6 6 6 6 6 4 5 6 6 5 4 5 4 6 4 2 2 3 3 2 3
6 6 6 6 6 6 6 6 7 6 6 6 5 5 5 4 2 1 3 4 3 5
7 7 6 7 7 7 7 7 5 6 6 6 6 5 4 4 2 2 3 4 4 6
11 10 9 7 6 6 5 5 6 7 7 6 6 5 5 3 1 2 3 5 5 6
10 6 5 5 3 4 4 3 5 7 5 6 5 5 6 4 2 1 5 5 4 5
7 4 3 4 4 3 3 5 6 7 6 6 4 8 8 7 4 3 4 5 6 6
3 1 4 3 3 5 4 4 6 6 6 7 7 10 10 9 4 4 5 6 5 6
6 6 4 5 4 4 2 4 4 6 7 6 7 9 11 9 6 5 7 7 6 6
6 4 3 3 3 2 2 3 4 4 6 7 7 9 11 8 6 6 8 7 6 6
4 2 2 2 3 2 2 4 4 6 6 7 8 9 13 12 5 6 6 6 6 9
5 2 3 3 2 3 4 4 4 5 5 6 7 9 13 13 7 8 5 4 4 5
Wind_Direction
207 209 215 203 188 204 203 207 211 210 217 225 226 234 231 227 246 246 249 253 229 245
212 205 217 218 211 199 197 225 211 210 219 235 251 246 235 229 247 235 254 266 241 216
220 205 211 224 234 209 216 222 223 228 233 243 256 346 113 102 38 78 348 288 175 176
233 225 214 206 225 222 229 218 236 230 212 170 125 105 118 124 79 31 323 309 257 243
245 224 218 211 222 226 231 235 237 212 142 130 136 141 118 109 80 26 288 284 269 247
268 241 222 219 217 214 219 228 217 164 154 145 146 131 116 141 168 218 247 246 252 249
259 249 225 229 222 238 221 185 160 152 153 151 150 149 166 152 108 303 264 268 256 261
264 267 286 248 220 209 197 192 149 137 138 157 164 182 176 180 178 339 304 296 293 271
268 236 248 267 285 288 158 153 144 159 170 172 207 211 207 178 195 219 258 286 298 289
72 315 272 225 175 181 184 171 165 170 178 206 223 220 222 208 207 238 257 258 269 291
29 30 56 95 154 182 163 177 189 194 209 220 237 234 228 225 225 237 252 253 254 256
18 30 84 121 141 173 186 212 224 211 217 218 250 232 228 214 233 246 256 255 264 258
317 14 73 196 206 203 214 234 236 248 228 226 248 250 237 213 215 242 252 270 274 276
319 284 266 193 220 228 239 252 267 277 279 261 239 260 246 219 211 228 232 242 269 265